COSMOS 2492 (754)

Last updated on Sat Sep 05 2026 00:03:26 GMT+0000 (Coordinated Universal Time)

1 39620U 14012A 26246.70444521 -.00000030 00000+0 00000+0 0 9997 2 39620 65.2472 311.2655 0011463 308.1984 51.7701 2.13103440 96913
UTC large
Height (km)
Speed (km/s)
/
Latitude / Longitude
Inclination (degrees)
Orbital Period (minutes)
Azimuth
Elevation
Range (km)
Doppler Factor

Next 0 passes for location: London (51.5072 / 0.1276)

No passes found over London.
COSMOS 2492 (754)